TimeEST,TemperatureF,Dew PointF,Humidity,Sea Level PressureIn,VisibilityMPH,Wind Direction,Wind SpeedMPH,Gust SpeedMPH,PrecipitationIn,Events,Conditions,WindDirDegrees,DateUTC
12:51 AM,28.0,12.9,53,30.17,10.0,Calm,Calm,-,N/A,,Clear,0,2013-02-19 05:51:00
1:51 AM,25.0,16.0,69,30.14,10.0,Calm,Calm,-,N/A,,Clear,0,2013-02-19 06:51:00
2:51 AM,24.1,14.0,65,30.12,10.0,Calm,Calm,-,N/A,,Clear,0,2013-02-19 07:51:00
3:51 AM,24.1,15.1,69,30.10,10.0,Calm,Calm,-,N/A,,Clear,0,2013-02-19 08:51:00
4:51 AM,23.0,14.0,68,30.07,10.0,East,3.5,-,N/A,,Clear,100,2013-02-19 09:51:00
5:51 AM,23.0,15.1,72,30.05,10.0,ENE,3.5,-,N/A,,Clear,70,2013-02-19 10:51:00
6:51 AM,24.1,16.0,71,30.04,10.0,ENE,5.8,-,N/A,,Clear,70,2013-02-19 11:51:00
7:51 AM,27.0,19.0,72,30.01,10.0,ENE,6.9,-,N/A,,Clear,60,2013-02-19 12:51:00
8:51 AM,36.0,23.0,59,29.98,10.0,SSE,8.1,-,N/A,,Clear,160,2013-02-19 13:51:00
9:51 AM,39.0,24.1,55,29.95,10.0,South,11.5,18.4,N/A,,Clear,190,2013-02-19 14:51:00
10:51 AM,41.0,24.1,51,29.94,10.0,SSW,10.4,-,N/A,,Mostly Cloudy,200,2013-02-19 15:51:00
11:29 AM,37.4,30.2,75,29.92,3.0,SW,11.5,-,0.00,Snow,Light Snow,220,2013-02-19 16:29:00
11:41 AM,35.6,30.2,81,29.91,2.5,SSW,9.2,-,0.02,Snow,Light Snow,200,2013-02-19 16:41:00
11:46 AM,35.6,32.0,87,29.91,1.8,SSW,8.1,-,0.03,Snow,Light Snow,200,2013-02-19 16:46:00
11:51 AM,34.0,32.0,92,29.92,1.5,SSW,6.9,-,0.04,Snow,Light Snow,200,2013-02-19 16:51:00
12:10 PM,33.8,32.0,93,29.89,2.5,South,8.1,-,0.03,Snow,Light Snow,190,2013-02-19 17:10:00
12:32 PM,35.6,33.8,93,29.87,4.0,South,9.2,-,0.04,Snow,Light Snow,190,2013-02-19 17:32:00
1:41 PM,35.6,33.8,93,29.81,5.0,South,5.8,-,0.05,Rain,Light Rain,190,2013-02-19 18:41:00
1:51 PM,37.0,34.0,89,29.82,7.0,South,6.9,-,0.06,Rain,Light Rain,190,2013-02-19 18:51:00
2:51 PM,37.9,36.0,93,29.78,6.0,Calm,Calm,-,0.02,Rain,Light Rain,0,2013-02-19 19:51:00
3:51 PM,39.0,37.0,93,29.75,4.0,SSW,3.5,-,0.04,Rain,Light Rain,210,2013-02-19 20:51:00
4:51 PM,39.9,37.0,89,29.72,8.0,Calm,Calm,-,0.03,Rain,Light Rain,0,2013-02-19 21:51:00
5:02 PM,39.2,37.4,93,29.70,7.0,SSE,3.5,-,0.00,Rain,Light Rain,150,2013-02-19 22:02:00
5:25 PM,37.4,35.6,93,29.71,1.8,Calm,Calm,-,0.00,,Overcast,0,2013-02-19 22:25:00
5:32 PM,35.6,35.6,100,29.71,5.0,NW,4.6,-,0.00,,Overcast,320,2013-02-19 22:32:00
5:51 PM,37.0,36.0,96,29.73,4.0,Calm,Calm,-,0.00,,Overcast,0,2013-02-19 22:51:00
7:28 PM,35.6,35.6,100,29.72,3.0,West,5.8,-,0.00,,Overcast,280,2013-02-20 00:28:00
7:36 PM,35.6,35.6,100,29.72,3.0,West,5.8,-,N/A,,Overcast,280,2013-02-20 00:36:00
7:51 PM,36.0,35.1,97,29.74,2.5,WNW,4.6,-,0.00,Rain,Light Rain,300,2013-02-20 00:51:00
7:53 PM,35.6,35.6,100,29.72,3.0,WNW,4.6,-,0.00,Rain,Light Rain,300,2013-02-20 00:53:00
8:03 PM,35.6,35.6,100,29.73,3.0,West,3.5,-,0.00,,Mostly Cloudy,260,2013-02-20 01:03:00
8:11 PM,35.6,33.8,93,29.73,3.0,West,4.6,-,0.00,,Mostly Cloudy,260,2013-02-20 01:11:00
8:51 PM,36.0,34.0,93,29.74,6.0,West,8.1,-,0.00,,Clear,260,2013-02-20 01:51:00
9:51 PM,37.0,27.0,67,29.76,10.0,West,15.0,24.2,N/A,,Partly Cloudy,280,2013-02-20 02:51:00
10:51 PM,36.0,25.0,64,29.77,10.0,West,15.0,-,N/A,,Mostly Cloudy,280,2013-02-20 03:51:00
11:51 PM,34.0,19.9,56,29.78,10.0,West,21.9,32.2,N/A,,Scattered Clouds,260,2013-02-20 04:51:00